Location: Newark
(50.0306°N, 2.3272°E)
Time: 05:08:50
(UTC+00:00)

A-11 Canister half - Pass Details

Date: 09 December 2019
Orbit: 1525 x 1684 km, 47.3° (Epoch: 24 January)

Event Time Altitude Azimuth Distance (km) Brightness Sun altitude
Rises 07:24:53 0° 243° (WSW) 4,924 11.4 -2.4°
Reaches altitude 10° 07:28:03 10° 241° (WSW) 3,943 10.9 -2.0°
Maximum altitude 07:38:05 67° 162° (SSE) 1,793 9.7 -0.7°
Drops below altitude 10° 07:48:01 10° 83° (E) 3,907 11.9 0.6°
Sets 07:51:09 0° 81° (E) 4,878 12.3 1.0°
